[Date Prev][Date Next][Thread Prev][Thread Next] - [Date Index][Thread Index][Author Index]
2 LIne ISS Keps 4-15
- Subject: [sarex] 2 LIne ISS Keps 4-15
- From: "Dave Larsen PhD" <doc@xxxxxxxxxxx>
- Date: Thu, 15 Apr 2004 02:57:44 -0700
ISS
1 25544U 98067A 04106.26699074 .00017659 00000-0 15877-3 0 5731
2 25544 51.6286 286.4282 0010862 33.9167 332.0471 15.68269933308449
----
Via the sarex mailing list at AMSAT.ORG courtesy of AMSAT-NA.
To unsubscribe, send "unsubscribe sarex" to Majordomo@amsat.org
AMSAT Home